,,PA_Meas_PMT16A,,PR_Meas_QMR101_102,,RH_Meas_QMH101,,SR_Meas_QMS101,,TA_Meas_QMH101,,GenWind,,GenWind,
time,status,PA,status,PR,status,RH,status,SR,status,TA,status,DirAvg,status,SpdAvg,
2011-04-03, 00:00:04,VALID,918.405,VALID,0,VALID,95.5367,VALID,0,VALID,19.3518,VALID,16,VALID,0.528516,
2011-04-03, 00:01:04,VALID,918.411,VALID,0,VALID,95.4909,VALID,0,VALID,19.3308,VALID,16,VALID,0.501953,
2011-04-03, 00:02:04,VALID,918.375,VALID,0,VALID,95.2622,VALID,0,VALID,19.2918,VALID,16,VALID,0.635547,
2011-04-03, 00:03:04,VALID,918.367,VALID,0,VALID,95.4299,VALID,0,VALID,19.3323,VALID,16,VALID,0.616016,
2011-04-03, 00:04:04,VALID,918.324,VALID,0,VALID,95.4375,VALID,0,VALID,19.3113,VALID,16,VALID,0.659766,
2011-04-03, 00:05:04,VALID,918.294,VALID,0,VALID,95.5062,VALID,0,VALID,19.3908,VALID,16,VALID,0.759375,
2011-04-03, 00:06:04,VALID,918.302,VALID,0,VALID,95.2317,VALID,0,VALID,19.3518,VALID,16,VALID,0.850781,
2011-04-03, 00:07:04,VALID,918.349,VALID,0,VALID,94.82,VALID,0,VALID,19.2738,VALID,16,VALID,0.508594,
2011-04-03, 00:08:04,VALID,918.33,VALID,0,VALID,94.7819,VALID,0,VALID,19.2153,VALID,16,VALID,0.691406,
2011-04-03, 00:09:04,VALID,918.357,VALID,0,VALID,95.0869,VALID,0.107441,VALID,19.2738,VALID,16,VALID,0.59375,
2011-04-03, 00:10:04,VALID,918.333,VALID,0,VALID,95.2241,VALID,0,VALID,19.2933,VALID,16,VALID,0.662109,
2011-04-03, 00:11:04,VALID,918.259,VALID,0,VALID,95.2241,VALID,0,VALID,19.2723,VALID,16,VALID,0.817969,
2011-04-03, 00:12:04,VALID,918.234,VALID,0,VALID,95.0488,VALID,0,VALID,19.2738,VALID,16,VALID,0.929688,
2011-04-03, 00:13:04,VALID,918.23,VALID,0,VALID,95.0183,VALID,0,VALID,19.2738,VALID,16,VALID,1.14063,
2011-04-03, 00:14:04,VALID,918.218,VALID,0,VALID,94.9725,VALID,0,VALID,19.2723,VALID,16,VALID,0.876953,
2011-04-03, 00:15:04,VALID,918.25,VALID,0,VALID,94.8505,VALID,0,VALID,19.3128,VALID,16,VALID,0.710156,
2011-04-03, 00:16:04,VALID,918.215,VALID,0,VALID,94.7667,VALID,0,VALID,19.3128,VALID,16,VALID,1.04336,
2011-04-03, 00:17:04,VALID,918.199,VALID,0,VALID,94.7972,VALID,0,VALID,19.3713,VALID,16,VALID,0.879297,
2011-04-03, 00:18:04,VALID,918.198,VALID,0,VALID,94.477,VALID,0,VALID,19.3908,VALID,16,VALID,0.642578,
2011-04-03, 00:19:04,VALID,918.162,VALID,0,VALID,94.2864,VALID,0,VALID,19.4103,VALID,16,VALID,0.620313,
2011-04-03, 00:20:04,VALID,918.194,VALID,0,VALID,94.1416,VALID,0,VALID,19.4298,VALID,16,VALID,0.737891,
2011-04-03, 00:21:04,VALID,918.197,VALID,0,VALID,93.8443,VALID,0,VALID,19.4103,VALID,16,VALID,0.724609,
2011-04-03, 00:22:04,VALID,918.162,VALID,0,VALID,93.4326,VALID,0,VALID,19.4103,VALID,16,VALID,0.617188,
2011-04-03, 00:23:04,VALID,918.168,VALID,0,VALID,93.8976,VALID,0,VALID,19.4298,VALID,16,VALID,0.662109,
2011-04-03, 00:24:04,VALID,918.159,VALID,0,VALID,94.1339,VALID,0,VALID,19.4688,VALID,16,VALID,0.520312,
2011-04-03, 00:25:04,VALID,918.174,VALID,0,VALID,93.8824,VALID,0,VALID,19.4883,VALID,16,VALID,0.562109,
2011-04-03, 00:26:04,VALID,918.123,VALID,0,VALID,93.8595,VALID,0,VALID,19.4883,VALID,16,VALID,0.664063,
2011-04-03, 00:27:04,VALID,918.128,VALID,0,VALID,93.7604,VALID,0,VALID,19.5063,VALID,16,VALID,0.473437,
2011-04-03, 00:28:04,VALID,918.081,VALID,0,VALID,93.5851,VALID,0,VALID,19.5663,VALID,16,VALID,0.551172,
2011-04-03, 00:29:04,VALID,918.085,VALID,0,VALID,93.2572,VALID,0,VALID,19.5843,VALID,16,VALID,0.651172,
2011-04-03, 00:30:04,VALID,918.067,VALID,0,VALID,93.181,VALID,0,VALID,19.6443,VALID,16,VALID,0.649219,
2011-04-03, 00:31:04,VALID,918.031,VALID,0,VALID,92.7084,VALID,0,VALID,19.6443,VALID,16,VALID,0.644141,
2011-04-03, 00:32:04,VALID,918.028,VALID,0,VALID,92.3882,VALID,0,VALID,19.6053,VALID,16,VALID,0.857031,
2011-04-03, 00:33:04,VALID,918.034,VALID,0,VALID,92.6169,VALID,0,VALID,19.5663,VALID,16,VALID,0.503516,
2011-04-03, 00:34:04,VALID,918.043,VALID,0,VALID,92.3958,VALID,0,VALID,19.4883,VALID,16,VALID,0.428906,
2011-04-03, 00:35:04,VALID,918.046,VALID,0,VALID,92.8837,VALID,0,VALID,19.4688,VALID,16,VALID,0.661719,
2011-04-03, 00:36:04,VALID,918.051,VALID,0,VALID,93.1734,VALID,0,VALID,19.4688,VALID,16,VALID,0.357422,
2011-04-03, 00:37:04,VALID,918.085,VALID,0,VALID,93.5241,VALID,0.107441,VALID,19.4478,VALID,16,VALID,0.153516,
2011-04-03, 00:38:04,VALID,918.05,VALID,0,VALID,93.4783,VALID,0.107441,VALID,19.4478,VALID,16,VALID,0.286328,
2011-04-03, 00:39:04,VALID,917.985,VALID,0,VALID,93.8747,VALID,0,VALID,19.4868,VALID,16,VALID,0.476172,
2011-04-03, 00:40:04,VALID,917.959,VALID,0,VALID,92.3348,VALID,0,VALID,19.3503,VALID,16,VALID,0.400781,
2011-04-03, 00:41:04,VALID,917.947,VALID,0,VALID,94.0577,VALID,0.107441,VALID,19.4283,VALID,16,VALID,0.656641,
2011-04-03, 00:42:04,VALID,917.94,VALID,0,VALID,94.3093,VALID,0,VALID,19.4883,VALID,16,VALID,0.593359,
2011-04-03, 00:43:04,VALID,917.921,VALID,0,VALID,93.9205,VALID,0,VALID,19.4688,VALID,16,VALID,0.219141,
2011-04-03, 00:44:04,VALID,917.902,VALID,0,VALID,93.6842,VALID,0.107441,VALID,19.4688,VALID,16,VALID,0.034375,
2011-04-03, 00:45:04,VALID,917.903,VALID,0,VALID,93.5698,VALID,0,VALID,19.4493,VALID,16,VALID,0,
2011-04-03, 00:46:04,VALID,917.872,VALID,0,VALID,93.5851,VALID,0,VALID,19.4298,VALID,16,VALID,0.135156,
2011-04-03, 00:47:04,VALID,917.88,VALID,0,VALID,93.6308,VALID,0.107441,VALID,19.3893,VALID,16,VALID,0,
2011-04-03, 00:48:04,VALID,917.868,VALID,0,VALID,93.8443,VALID,0.107441,VALID,19.4298,VALID,16,VALID,0,
2011-04-03, 00:49:04,VALID,917.898,VALID,0,VALID,93.9586,VALID,0,VALID,19.4283,VALID,16,VALID,0,
2011-04-03, 00:50:04,VALID,917.882,VALID,0,VALID,93.9586,VALID,0.107441,VALID,19.4088,VALID,16,VALID,0,
2011-04-03, 00:51:04,VALID,917.868,VALID,0,VALID,93.9434,VALID,0,VALID,19.3908,VALID,16,VALID,0,
2011-04-03, 00:52:04,VALID,917.842,VALID,0,VALID,94.0196,VALID,0,VALID,19.3908,VALID,16,VALID,0,
2011-04-03, 00:53:04,VALID,917.844,VALID,0,VALID,94.073,VALID,0,VALID,19.3908,VALID,16,VALID,0,
2011-04-03, 00:54:04,VALID,917.806,VALID,0,VALID,94.0348,VALID,0,VALID,19.3908,VALID,16,VALID,0,
2011-04-03, 00:55:04,VALID,917.764,VALID,0,VALID,93.6537,VALID,0,VALID,19.3518,VALID,16,VALID,0,
2011-04-03, 00:56:04,VALID,917.73,VALID,0,VALID,94.2026,VALID,0,VALID,19.4103,VALID,16,VALID,0.512891,
2011-04-03, 00:57:04,VALID,917.728,VALID,0,VALID,93.8976,VALID,0,VALID,19.4313,VALID,16,VALID,0.00195313,
2011-04-03, 00:58:04,VALID,917.746,VALID,0,VALID,94.2788,VALID,0,VALID,19.4703,VALID,16,VALID,0.245703,
2011-04-03, 00:59:04,VALID,917.741,VALID,0,VALID,94.0425,VALID,0,VALID,19.4313,VALID,16,VALID,0,
2011-04-03, 01:00:04,VALID,917.701,VALID,0,VALID,94.294,VALID,0,VALID,19.4298,VALID,16,VALID,0.264844,
2011-04-03, 01:01:04,VALID,917.729,VALID,0,VALID,94.2635,VALID,0,VALID,19.4298,VALID,16,VALID,0.357031,
2011-04-03, 01:02:04,VALID,917.74,VALID,0,VALID,94.3245,VALID,0,VALID,19.4298,VALID,16,VALID,0.356641,
2011-04-03, 01:03:04,VALID,917.706,VALID,0,VALID,94.4922,VALID,0,VALID,19.4898,VALID,16,VALID,0.419141,
2011-04-03, 01:04:04,VALID,917.698,VALID,0,VALID,94.6447,VALID,0,VALID,19.5288,VALID,16,VALID,0.346875,
2011-04-03, 01:05:04,VALID,917.706,VALID,0,VALID,94.3245,VALID,0,VALID,19.5273,VALID,16,VALID,0.464063,
2011-04-03, 01:06:04,VALID,917.714,VALID,0,VALID,93.89,VALID,0.107441,VALID,19.5258,VALID,16,VALID,0.655859,
2011-04-03, 01:07:04,VALID,917.719,VALID,0,VALID,93.768,VALID,0,VALID,19.5663,VALID,16,VALID,0.688281,
2011-04-03, 01:08:04,VALID,917.759,VALID,0,VALID,93.6003,VALID,0.107441,VALID,19.5663,VALID,16,VALID,0.6,
2011-04-03, 01:09:04,VALID,917.799,VALID,0,VALID,93.4936,VALID,0,VALID,19.5843,VALID,16,VALID,0.384766,
2011-04-03, 01:10:04,VALID,917.75,VALID,0,VALID,93.6842,VALID,0.107441,VALID,19.6443,VALID,16,VALID,0.296875,
2011-04-03, 01:11:04,VALID,917.757,VALID,0,VALID,93.6384,VALID,0.107441,VALID,19.6428,VALID,16,VALID,0.08125,
2011-04-03, 01:12:04,VALID,917.721,VALID,0,VALID,93.6308,VALID,0.107441,VALID,19.7028,VALID,16,VALID,0.113672,
2011-04-03, 01:13:04,VALID,917.698,VALID,0,VALID,93.5698,VALID,0,VALID,19.7418,VALID,16,VALID,0.127344,
2011-04-03, 01:14:04,VALID,917.672,VALID,0,VALID,93.1658,VALID,0.107441,VALID,19.7193,VALID,16,VALID,0.0121094,
2011-04-03, 01:15:04,VALID,917.643,VALID,0,VALID,92.6474,VALID,0.107441,VALID,19.7208,VALID,16,VALID,0,
2011-04-03, 01:16:04,VALID,917.663,VALID,0,VALID,92.4873,VALID,0.107441,VALID,19.6833,VALID,16,VALID,0.442578,
2011-04-03, 01:17:04,VALID,917.645,VALID,0,VALID,92.8761,VALID,0.107441,VALID,19.6833,VALID,16,VALID,0.175781,
2011-04-03, 01:18:04,VALID,917.63,VALID,0,VALID,93.2115,VALID,0.107441,VALID,19.6428,VALID,16,VALID,0.142578,
2011-04-03, 01:19:04,VALID,917.657,VALID,0,VALID,93.3716,VALID,0.107441,VALID,19.6443,VALID,16,VALID,0.534766,
2011-04-03, 01:20:04,VALID,917.657,VALID,0,VALID,93.4707,VALID,0.107441,VALID,19.6038,VALID,16,VALID,0.455078,
2011-04-03, 01:21:04,VALID,917.613,VALID,0,VALID,93.9052,VALID,0,VALID,19.6458,VALID,16,VALID,0.333594,
2011-04-03, 01:22:04,VALID,917.582,VALID,0,VALID,93.9815,VALID,0,VALID,19.6248,VALID,16,VALID,0.116016,
2011-04-03, 01:23:04,VALID,917.564,VALID,0,VALID,93.7451,VALID,0,VALID,19.5663,VALID,16,VALID,0.257813,
2011-04-03, 01:24:04,VALID,917.561,VALID,0,VALID,93.3564,VALID,0,VALID,19.5093,VALID,16,VALID,0.477734,
2011-04-03, 01:25:04,VALID,917.557,VALID,0,VALID,93.5851,VALID,0,VALID,19.4298,VALID,16,VALID,0.360938,
2011-04-03, 01:26:04,VALID,917.543,VALID,0,VALID,94.0806,VALID,0,VALID,19.4103,VALID,16,VALID,0.330469,
2011-04-03, 01:27:04,VALID,917.513,VALID,0,VALID,94.355,VALID,0,VALID,19.4103,VALID,16,VALID,0.425,
2011-04-03, 01:28:04,VALID,917.489,VALID,0,VALID,94.5227,VALID,0,VALID,19.4313,VALID,16,VALID,0.404687,
2011-04-03, 01:29:04,VALID,917.433,VALID,0,VALID,94.4922,VALID,0,VALID,19.4118,VALID,16,VALID,0.335547,
2011-04-03, 01:30:04,VALID,917.435,VALID,0,VALID,94.4465,VALID,0,VALID,19.4118,VALID,16,VALID,0.540234,
2011-04-03, 01:31:04,VALID,917.456,VALID,0,VALID,94.3626,VALID,0,VALID,19.3713,VALID,16,VALID,0.715625,
2011-04-03, 01:32:04,VALID,917.483,VALID,0,VALID,94.3931,VALID,0,VALID,19.3518,VALID,16,VALID,0.736328,
2011-04-03, 01:33:04,VALID,917.499,VALID,0,VALID,94.5304,VALID,0,VALID,19.3923,VALID,16,VALID,0.837891,
2011-04-03, 01:34:04,VALID,917.496,VALID,0,VALID,94.4922,VALID,0,VALID,19.4103,VALID,16,VALID,0.783203,
2011-04-03, 01:35:04,VALID,917.485,VALID,0,VALID,94.4236,VALID,0,VALID,19.4508,VALID,16,VALID,0.510156,
2011-04-03, 01:36:04,VALID,917.541,VALID,0,VALID,94.3398,VALID,0.107441,VALID,19.4673,VALID,16,VALID,0.450391,
2011-04-03, 01:37:04,VALID,917.494,VALID,0,VALID,94.2102,VALID,0,VALID,19.5078,VALID,16,VALID,0.482422,
2011-04-03, 01:38:04,VALID,917.495,VALID,0,VALID,93.7833,VALID,0,VALID,19.5273,VALID,16,VALID,0.44375,
2011-04-03, 01:39:04,VALID,917.49,VALID,0,VALID,93.6537,VALID,0.107441,VALID,19.4868,VALID,16,VALID,0.362891,
2011-04-03, 01:40:04,VALID,917.481,VALID,0,VALID,93.8061,VALID,0.107441,VALID,19.5258,VALID,16,VALID,0.463672,
2011-04-03, 01:41:04,VALID,917.497,VALID,0,VALID,93.6613,VALID,0,VALID,19.5663,VALID,16,VALID,0.217969,
2011-04-03, 01:42:04,VALID,917.479,VALID,0,VALID,93.5393,VALID,0,VALID,19.5468,VALID,16,VALID,0,
2011-04-03, 01:43:04,VALID,917.51,VALID,0,VALID,93.4478,VALID,0,VALID,19.5663,VALID,16,VALID,0.136328,
2011-04-03, 01:44:04,VALID,917.499,VALID,0,VALID,93.2725,VALID,0,VALID,19.5468,VALID,16,VALID,0.427734,
2011-04-03, 01:45:04,VALID,917.513,VALID,0,VALID,93.3259,VALID,0,VALID,19.5453,VALID,16,VALID,0.473828,
2011-04-03, 01:46:04,VALID,917.466,VALID,0,VALID,93.4859,VALID,0,VALID,19.5663,VALID,16,VALID,0.382422,
2011-04-03, 01:47:04,VALID,917.447,VALID,0,VALID,93.6232,VALID,0,VALID,19.6053,VALID,16,VALID,0.271875,
2011-04-03, 01:48:04,VALID,917.425,VALID,0,VALID,93.6613,VALID,0.107441,VALID,19.6233,VALID,16,VALID,0.0191406,
2011-04-03, 01:49:04,VALID,917.4,VALID,0,VALID,93.6079,VALID,0,VALID,19.6428,VALID,16,VALID,0,
2011-04-03, 01:50:04,VALID,917.44,VALID,0,VALID,93.5088,VALID,0,VALID,19.6443,VALID,16,VALID,0,
2011-04-03, 01:51:04,VALID,917.406,VALID,0,VALID,93.425,VALID,0,VALID,19.6248,VALID,16,VALID,0,
2011-04-03, 01:52:04,VALID,917.425,VALID,0,VALID,93.364,VALID,0,VALID,19.5843,VALID,16,VALID,0,
2011-04-03, 01:53:04,VALID,917.439,VALID,0,VALID,93.2496,VALID,0,VALID,19.6053,VALID,16,VALID,0,
2011-04-03, 01:54:04,VALID,917.43,VALID,0,VALID,93.1963,VALID,0,VALID,19.5858,VALID,16,VALID,0,
2011-04-03, 01:55:04,VALID,917.414,VALID,0,VALID,93.303,VALID,0,VALID,19.5858,VALID,16,VALID,0,
2011-04-03, 01:56:04,VALID,917.468,VALID,0,VALID,93.2572,VALID,0,VALID,19.5663,VALID,16,VALID,0,
2011-04-03, 01:57:04,VALID,917.461,VALID,0,VALID,92.6093,VALID,0,VALID,19.5078,VALID,16,VALID,0,
2011-04-03, 01:58:04,VALID,917.447,VALID,0,VALID,92.8913,VALID,0,VALID,19.4883,VALID,16,VALID,0,
2011-04-03, 01:59:04,VALID,917.437,VALID,0,VALID,93.4707,VALID,0,VALID,19.4673,VALID,16,VALID,0.363281,
2011-04-03, 02:00:04,VALID,917.443,VALID,0,VALID,93.6765,VALID,0,VALID,19.4673,VALID,16,VALID,0.253516,
2011-04-03, 02:01:04,VALID,917.482,VALID,0,VALID,93.5774,VALID,0,VALID,19.4673,VALID,16,VALID,0.249609,
2011-04-03, 02:02:04,VALID,917.453,VALID,0,VALID,93.6765,VALID,0,VALID,19.5258,VALID,16,VALID,0.164063,
2011-04-03, 02:03:04,VALID,917.478,VALID,0,VALID,93.6994,VALID,0,VALID,19.5663,VALID,16,VALID,0.244141,
2011-04-03, 02:04:04,VALID,917.484,VALID,0,VALID,93.6918,VALID,0,VALID,19.5843,VALID,16,VALID,0,
2011-04-03, 02:05:04,VALID,917.468,VALID,0,VALID,93.5698,VALID,0,VALID,19.6443,VALID,16,VALID,0,
2011-04-03, 02:06:04,VALID,917.495,VALID,0,VALID,93.2877,VALID,0,VALID,19.6233,VALID,16,VALID,0,
2011-04-03, 02:07:04,VALID,917.465,VALID,0,VALID,91.3057,VALID,0,VALID,19.5453,VALID,16,VALID,0,
2011-04-03, 02:08:04,VALID,917.465,VALID,0,VALID,91.9308,VALID,0,VALID,19.5468,VALID,16,VALID,0.190625,
2011-04-03, 02:09:04,VALID,917.466,VALID,0,VALID,92.8532,VALID,0,VALID,19.5648,VALID,16,VALID,0.0882813,
2011-04-03, 02:10:04,VALID,917.437,VALID,0,VALID,92.9142,VALID,0,VALID,19.5663,VALID,16,VALID,0,
2011-04-03, 02:11:04,VALID,917.437,VALID,0,VALID,93.2344,VALID,0,VALID,19.6248,VALID,16,VALID,0.0046875,
2011-04-03, 02:12:04,VALID,917.419,VALID,0,VALID,93.2801,VALID,0,VALID,19.6638,VALID,16,VALID,0.322266,
2011-04-03, 02:13:04,VALID,917.418,VALID,0,VALID,93.1658,VALID,0,VALID,19.7028,VALID,16,VALID,0.100391,
2011-04-03, 02:14:04,VALID,917.351,VALID,0,VALID,93.0438,VALID,0,VALID,19.7418,VALID,16,VALID,0.478125,
2011-04-03, 02:15:04,VALID,917.338,VALID,0,VALID,92.9066,VALID,0,VALID,19.7613,VALID,16,VALID,0.523047,
2011-04-03, 02:16:04,VALID,917.346,VALID,0,VALID,92.7465,VALID,0,VALID,19.7418,VALID,16,VALID,0.23125,
2011-04-03, 02:17:04,VALID,917.329,VALID,0,VALID,92.4949,VALID,0,VALID,19.7223,VALID,16,VALID,0.454688,
2011-04-03, 02:18:04,VALID,917.298,VALID,0,VALID,92.3577,VALID,0,VALID,19.7043,VALID,16,VALID,0.0480469,
2011-04-03, 02:19:04,VALID,917.31,VALID,0,VALID,91.3743,VALID,0,VALID,19.5828,VALID,16,VALID,0,
2011-04-03, 02:20:04,VALID,917.353,VALID,0,VALID,90.5891,VALID,0.107441,VALID,19.5273,VALID,16,VALID,0,
2011-04-03, 02:21:04,VALID,917.327,VALID,0,VALID,91.6487,VALID,0,VALID,19.4493,VALID,16,VALID,0.253516,
2011-04-03, 02:22:04,VALID,917.297,VALID,0,VALID,92.3424,VALID,0,VALID,19.3893,VALID,16,VALID,0,
2011-04-03, 02:23:04,VALID,917.303,VALID,0,VALID,93.12,VALID,0,VALID,19.4103,VALID,16,VALID,0,
2011-04-03, 02:24:04,VALID,917.349,VALID,0,VALID,93.4402,VALID,0.107441,VALID,19.4103,VALID,16,VALID,0,
2011-04-03, 02:25:04,VALID,917.316,VALID,0,VALID,93.4402,VALID,0,VALID,19.4298,VALID,16,VALID,0,
2011-04-03, 02:26:04,VALID,917.318,VALID,0,VALID,93.5241,VALID,0.107441,VALID,19.4088,VALID,16,VALID,0.46875,
2011-04-03, 02:27:04,VALID,917.321,VALID,0,VALID,93.9434,VALID,0,VALID,19.4673,VALID,16,VALID,0.0820313,
2011-04-03, 02:28:04,VALID,917.29,VALID,0,VALID,93.5012,VALID,0.107441,VALID,19.4688,VALID,16,VALID,0.205469,
2011-04-03, 02:29:04,VALID,917.325,VALID,0,VALID,93.5927,VALID,0.107441,VALID,19.4883,VALID,16,VALID,0.529688,
2011-04-03, 02:30:04,VALID,917.313,VALID,0,VALID,93.4936,VALID,0,VALID,19.4883,VALID,16,VALID,0.498437,
2011-04-03, 02:31:04,VALID,917.307,VALID,0,VALID,93.7756,VALID,0.107441,VALID,19.5078,VALID,16,VALID,0,
2011-04-03, 02:32:04,VALID,917.251,VALID,0,VALID,93.9281,VALID,0,VALID,19.5468,VALID,16,VALID,0,
2011-04-03, 02:33:04,VALID,917.211,VALID,0,VALID,93.7833,VALID,0.107441,VALID,19.5663,VALID,16,VALID,0.347656,
2011-04-03, 02:34:04,VALID,917.216,VALID,0,VALID,93.9281,VALID,0,VALID,19.6053,VALID,16,VALID,0.0757812,
2011-04-03, 02:35:04,VALID,917.193,VALID,0,VALID,93.6918,VALID,0.107441,VALID,19.6053,VALID,16,VALID,0,
2011-04-03, 02:36:04,VALID,917.208,VALID,0,VALID,93.2649,VALID,0,VALID,19.5843,VALID,16,VALID,0,
2011-04-03, 02:37:04,VALID,917.198,VALID,0,VALID,93.3411,VALID,0,VALID,19.6233,VALID,16,VALID,0,
2011-04-03, 02:38:04,VALID,917.192,VALID,0,VALID,93.5393,VALID,0,VALID,19.6833,VALID,16,VALID,0.334375,
2011-04-03, 02:39:04,VALID,917.15,VALID,0,VALID,93.12,VALID,0,VALID,19.7028,VALID,16,VALID,0,
2011-04-03, 02:40:04,VALID,917.139,VALID,0,VALID,92.6245,VALID,0.107441,VALID,19.6623,VALID,16,VALID,0,
2011-04-03, 02:41:04,VALID,917.123,VALID,0,VALID,92.8456,VALID,0,VALID,19.6638,VALID,16,VALID,0.330469,
2011-04-03, 02:42:04,VALID,917.098,VALID,0,VALID,92.9599,VALID,0,VALID,19.6038,VALID,16,VALID,0.707031,
2011-04-03, 02:43:04,VALID,917.066,VALID,0,VALID,92.9523,VALID,0,VALID,19.5468,VALID,16,VALID,0.363281,
2011-04-03, 02:44:04,VALID,917.038,VALID,0,VALID,93.2268,VALID,0,VALID,19.5078,VALID,16,VALID,0,
2011-04-03, 02:45:04,VALID,917.041,VALID,0,VALID,93.9281,VALID,0,VALID,19.5273,VALID,16,VALID,0.347656,
2011-04-03, 02:46:04,VALID,917.006,VALID,0,VALID,93.9052,VALID,0.107441,VALID,19.5468,VALID,16,VALID,0.114453,
2011-04-03, 02:47:04,VALID,917.012,VALID,0,VALID,93.7451,VALID,0,VALID,19.5273,VALID,16,VALID,0.260938,
2011-04-03, 02:48:04,VALID,916.999,VALID,0,VALID,93.6994,VALID,0,VALID,19.5258,VALID,16,VALID,0,
2011-04-03, 02:49:04,VALID,916.942,VALID,0,VALID,93.8519,VALID,0,VALID,19.5468,VALID,16,VALID,0,
2011-04-03, 02:50:04,VALID,916.939,VALID,0,VALID,94.0348,VALID,0,VALID,19.5648,VALID,16,VALID,0,
2011-04-03, 02:51:04,VALID,916.913,VALID,0,VALID,93.9815,VALID,0,VALID,19.5843,VALID,16,VALID,0,
2011-04-03, 02:52:04,VALID,916.916,VALID,0,VALID,93.7604,VALID,0,VALID,19.6053,VALID,16,VALID,0,
2011-04-03, 02:53:04,VALID,916.929,VALID,0,VALID,93.7985,VALID,0,VALID,19.6053,VALID,16,VALID,0.0175781,
2011-04-03, 02:54:04,VALID,916.907,VALID,0,VALID,93.8824,VALID,0,VALID,19.6638,VALID,16,VALID,0.139453,
2011-04-03, 02:55:04,VALID,916.894,VALID,0,VALID,93.1505,VALID,0,VALID,19.6248,VALID,16,VALID,0.4,
2011-04-03, 02:56:04,VALID,916.882,VALID,0,VALID,92.9981,VALID,0.107441,VALID,19.5663,VALID,16,VALID,0.434766,
2011-04-03, 02:57:04,VALID,916.877,VALID,0,VALID,93.3487,VALID,0,VALID,19.5273,VALID,16,VALID,0,
2011-04-03, 02:58:04,VALID,916.858,VALID,0,VALID,93.6155,VALID,0,VALID,19.5273,VALID,16,VALID,0,
2011-04-03, 02:59:04,VALID,916.858,VALID,0,VALID,93.8595,VALID,0.107441,VALID,19.5258,VALID,16,VALID,0.31875,
2011-04-03, 03:00:04,VALID,916.813,VALID,0,VALID,93.9281,VALID,0,VALID,19.5078,VALID,16,VALID,0.378906,
2011-04-03, 03:01:04,VALID,916.794,VALID,0,VALID,93.9586,VALID,0,VALID,19.4673,VALID,16,VALID,0.00585938,
2011-04-03, 03:02:04,VALID,916.796,VALID,0,VALID,94.1034,VALID,0.107441,VALID,19.4883,VALID,16,VALID,0.0152344,
2011-04-03, 03:03:04,VALID,916.752,VALID,0,VALID,94.3703,VALID,0.107441,VALID,19.5078,VALID,16,VALID,0.494922,
2011-04-03, 03:04:04,VALID,916.749,VALID,0,VALID,94.477,VALID,0.107441,VALID,19.5273,VALID,16,VALID,0.26875,
2011-04-03, 03:05:04,VALID,916.708,VALID,0,VALID,94.3321,VALID,0,VALID,19.4868,VALID,16,VALID,0.560547,
2011-04-03, 03:06:04,VALID,916.71,VALID,0,VALID,94.3245,VALID,0.107441,VALID,19.4868,VALID,16,VALID,0.395312,
2011-04-03, 03:07:04,VALID,916.692,VALID,0,VALID,94.3093,VALID,0.107441,VALID,19.5078,VALID,16,VALID,0.300391,
2011-04-03, 03:08:04,VALID,916.688,VALID,0,VALID,94.1492,VALID,0,VALID,19.5078,VALID,16,VALID,0.791406,
2011-04-03, 03:09:04,VALID,916.695,VALID,0,VALID,94.2407,VALID,0,VALID,19.4673,VALID,16,VALID,0.911719,
2011-04-03, 03:10:04,VALID,916.664,VALID,0,VALID,94.3931,VALID,0.107441,VALID,19.5078,VALID,16,VALID,1.07734,
2011-04-03, 03:11:04,VALID,916.668,VALID,0,VALID,94.5151,VALID,0.107441,VALID,19.4868,VALID,16,VALID,0.957812,
2011-04-03, 03:12:04,VALID,916.676,VALID,0,VALID,94.6218,VALID,0,VALID,19.5258,VALID,16,VALID,0.575781,
2011-04-03, 03:13:04,VALID,916.668,VALID,0,VALID,94.6066,VALID,0.107441,VALID,19.5663,VALID,16,VALID,0.725781,
2011-04-03, 03:14:04,VALID,916.651,VALID,0,VALID,94.5075,VALID,0,VALID,19.5843,VALID,16,VALID,0.667578,
2011-04-03, 03:15:04,VALID,916.662,VALID,0,VALID,94.416,VALID,0,VALID,19.5843,VALID,16,VALID,0.552344,
2011-04-03, 03:16:04,VALID,916.635,VALID,0,VALID,94.294,VALID,0.107441,VALID,19.6233,VALID,16,VALID,0.283203,
2011-04-03, 03:17:04,VALID,916.584,VALID,0,VALID,94.1873,VALID,0,VALID,19.6233,VALID,16,VALID,0.225391,
2011-04-03, 03:18:04,VALID,916.539,VALID,0,VALID,94.1111,VALID,0.107441,VALID,19.6623,VALID,16,VALID,0.191406,
2011-04-03, 03:19:04,VALID,916.525,VALID,0,VALID,94.0577,VALID,0.107441,VALID,19.6623,VALID,16,VALID,0.298047,
2011-04-03, 03:20:04,VALID,916.523,VALID,0,VALID,93.9738,VALID,0.107441,VALID,19.7028,VALID,16,VALID,0.389453,
2011-04-03, 03:21:04,VALID,916.526,VALID,0,VALID,93.8824,VALID,0,VALID,19.7028,VALID,16,VALID,0.440625,
2011-04-03, 03:22:04,VALID,916.52,VALID,0,VALID,93.7223,VALID,0,VALID,19.7013,VALID,16,VALID,0.228125,
2011-04-03, 03:23:04,VALID,916.516,VALID,0,VALID,93.5469,VALID,0,VALID,19.7418,VALID,16,VALID,0.281641,
2011-04-03, 03:24:04,VALID,916.533,VALID,0,VALID,93.3792,VALID,0,VALID,19.7823,VALID,16,VALID,0.235547,
2011-04-03, 03:25:04,VALID,916.495,VALID,0,VALID,93.242,VALID,0,VALID,19.8018,VALID,16,VALID,0,
2011-04-03, 03:26:04,VALID,916.515,VALID,0,VALID,93.0972,VALID,0,VALID,19.7808,VALID,16,VALID,0.00195313,
2011-04-03, 03:27:04,VALID,916.515,VALID,0,VALID,93.0743,VALID,0,VALID,19.7808,VALID,16,VALID,0.405469,
2011-04-03, 03:28:04,VALID,916.498,VALID,0,VALID,93.0438,VALID,0,VALID,19.7613,VALID,16,VALID,0.362109,
2011-04-03, 03:29:04,VALID,916.5,VALID,0,VALID,92.9523,VALID,0,VALID,19.8003,VALID,16,VALID,0.246094,
2011-04-03, 03:30:04,VALID,916.515,VALID,0,VALID,92.8761,VALID,0,VALID,19.8003,VALID,16,VALID,0,
2011-04-03, 03:31:04,VALID,916.506,VALID,0,VALID,92.7617,VALID,0,VALID,19.8003,VALID,16,VALID,0.262109,
2011-04-03, 03:32:04,VALID,916.478,VALID,0,VALID,92.7236,VALID,0,VALID,19.8198,VALID,16,VALID,0.469141,
2011-04-03, 03:33:04,VALID,916.487,VALID,0,VALID,92.5102,VALID,0,VALID,19.8393,VALID,16,VALID,0.483203,
2011-04-03, 03:34:04,VALID,916.515,VALID,0,VALID,92.2586,VALID,0,VALID,19.8393,VALID,16,VALID,0.201562,
2011-04-03, 03:35:04,VALID,916.5,VALID,0,VALID,92.19,VALID,0,VALID,19.8198,VALID,16,VALID,0.223047,
2011-04-03, 03:36:04,VALID,916.5,VALID,0,VALID,92.1671,VALID,0,VALID,19.8198,VALID,16,VALID,0.207813,
2011-04-03, 03:37:04,VALID,916.478,VALID,0,VALID,92.0451,VALID,0,VALID,19.7808,VALID,16,VALID,0.512109,
2011-04-03, 03:38:04,VALID,916.491,VALID,0,VALID,92.3348,VALID,0,VALID,19.7418,VALID,16,VALID,0.4125,
2011-04-03, 03:39:04,VALID,916.521,VALID,0,VALID,92.5635,VALID,0,VALID,19.7418,VALID,16,VALID,0,
2011-04-03, 03:40:04,VALID,916.544,VALID,0,VALID,92.6702,VALID,0,VALID,19.7223,VALID,16,VALID,0.291797,
2011-04-03, 03:41:04,VALID,916.588,VALID,0,VALID,92.6702,VALID,0,VALID,19.7418,VALID,16,VALID,0.318359,
2011-04-03, 03:42:04,VALID,916.571,VALID,0,VALID,92.5864,VALID,0,VALID,19.7223,VALID,16,VALID,0.431641,
2011-04-03, 03:43:04,VALID,916.553,VALID,0,VALID,92.8151,VALID,0,VALID,19.7613,VALID,16,VALID,0.143359,
2011-04-03, 03:44:04,VALID,916.551,VALID,0,VALID,92.8456,VALID,0,VALID,19.7418,VALID,16,VALID,0,
2011-04-03, 03:45:04,VALID,916.545,VALID,0,VALID,92.9447,VALID,0,VALID,19.7613,VALID,16,VALID,0.489844,
2011-04-03, 03:46:04,VALID,916.596,VALID,0,VALID,92.8837,VALID,0,VALID,19.7808,VALID,16,VALID,0.267969,